Weather Roundup
Issued by NWS

Home | Current Version | Previous Version | Graphics & Text | Print | Product List | Glossary Off
Versions: 1 2 3 4 5 6 7 8 9 10 11 12 13 14 15 16 17 18 19 20 21 22 23 24 25 26 27 28 29 30 31 32 33 34 35 36 37 38 39 40 41 42 43 44 45 46 47 48 49 50

000
NZUS93 KARX 251359
HRRWXR

CURRENT HOURLY OBSERVATIONS ACROSS
MUCH OF THE UPPER MISSISSIPPI VALLEY
NATIONAL WEATHER SERVICE LA CROSSE WI
900 AM CDT THU AUG 25 2016


...SOUTHEAST MINNESOTA...


CITY           SKY/WX    TMP DP  RH WIND       PRES   REMARKS
ROCHESTER      SUNNY     68  61  78 W6        30.06S
ROCHESTER/MAYO FAIR      67  58  73 W5        30.05F
WINONA         SUNNY     70  61  73 NW6       30.03F
AUSTIN         SUNNY     68  57  68 W3        30.06S
ALBERT LEA     SUNNY     68  57  68 CALM      30.06S
DODGE CENTER   SUNNY     68  61  77 W6        30.05F
PRESTON        SUNNY     67  59  76 NW5       30.07S
OWATONNA       SUNNY     64  59  82 SW5       30.05S
FARIBAULT      SUNNY     66  59  77 W8        30.04S
$$

...ELSEWHERE IN MINNESOTA...


CITY           SKY/WX    TMP DP  RH WIND       PRES   REMARKS
MINNEAPOLIS    MOSUNNY   66  58  75 W7        30.01S
INTNL FALLS      N/A     57  54  89 SW8       29.87F
DULUTH         SUNNY     64  55  72 W10       29.94F
RED WING       SUNNY     68  61  77 W3        30.00F
REDWOOD FALLS  CLOUDY    61  54  77 NW10      30.07R
MANKATO        SUNNY     63  55  77 NW8       30.06R
WORTHINGTON    MOSUNNY   61  55  81 NW6       30.11R
FAIRMONT       SUNNY     65  57  75 NW10      30.08R
$$

...SOUTHWEST WISCONSIN...


CITY           SKY/WX    TMP DP  RH WIND       PRES   REMARKS
LA CROSSE      PTSUNNY   68  32  26 S3        30.03S
PRAIRIE DU CHI SUNNY     67  61  79 CALM      30.05R
BOSCOBEL       SUNNY     71  63  75 CALM      30.05R
LONE ROCK      NOT AVBL
PLATTEVILLE    SUNNY     68  65  89 N6        30.05S
FORT MC COY    CLOUDY    61  60  96 CALM      30.05S
MAUSTON-NEW LI CLOUDY    66  61  83 CALM      30.03S
VIROQUA        FAIR      64  62  92 W3        30.06R
WIS DELLS      NOT AVBL
$$

...ELSEWHERE IN WISCONSIN...


CITY           SKY/WX    TMP DP  RH WIND       PRES   REMARKS
MILWAUKEE      PTSUNNY   72  67  84 NW12      29.99R
MADISON        PTSUNNY   70  61  73 NW5       30.02S
GREEN BAY      CLOUDY    67  63  87 NW8       29.99R
EAU CLAIRE     NOT AVBL
BLACK RVR FLS  FAIR      65  64  97 CALM      30.03R
MEDFORD        SUNNY     62  62  99 W8        30.02S
WAUSAU         CLOUDY    64  58  80 W5        30.00S
WIS RAPIDS     MOSUNNY   66  61  84 W3        30.03S
MARSHFIELD     PTSUNNY   66  59  78 NW7       30.02R
RICE LAKE      SUNNY     63  59  86 SW5       30.02S
$$

...NORTHEAST IOWA...


CITY           SKY/WX    TMP DP  RH WIND       PRES   REMARKS
WATERLOO       CLOUDY    69  62  78 N8        30.05S
DUBUQUE        CLOUDY    69  61  75 N8        30.06R
DECORAH        MOSUNNY   66  63  88 VRB5      30.06S
MASON CITY     SUNNY     67  60  78 NW3       30.09S
CHARLES CITY   SUNNY     66  63  88 NW3       30.08S
OELWEIN        CLOUDY    66  63  88 NW7       30.08R
$$

...ELSEWHERE IN IOWA...


CITY           SKY/WX    TMP DP  RH WIND       PRES   REMARKS
DES MOINES     PTSUNNY   71  62  73 N5        30.08R
IOWA CITY      CLOUDY    73  62  68 VRB6      30.06R
FORT DODGE     SUNNY     66  61  82 CALM      30.11R
MARSHALLTOWN   SUNNY     70  63  78 N5        30.08R
CEDAR RAPIDS   SUNNY     70  64  81 N8        30.05S
$$

...NORTHERN ILLINOIS...


CITY           SKY/WX    TMP DP  RH WIND       PRES   REMARKS
CHICAGO-OHARE  CLOUDY    73  70  90 NW5       29.99R
CHICAGO-MIDWAY CLOUDY    74  69  85 W12       30.00R
MOLINE         CLOUDY    73  64  73 NE7       30.03S
ROCKFORD       MOSUNNY   73  64  73 N7        30.03S
PEORIA         CLOUDY    73  72  96 W6        30.04R FOG
$$

NOTE: "FAIR" INDICATES FEW OR NO CLOUDS BELOW 12,000 FEET WITH NO
SIGNIFICANT WEATHER AND/OR OBSTRUCTIONS TO VISIBILITY. WIND
SPEEDS ARE IN MILES-PER-HOUR.




USA.gov is the U.S. government's official web portal to all federal, state and local government web resources and services.